This demonstration page uses our WeatherBlox Daily Observations layout. Learn more.

Left ArrowRight Arrow

Hourly Observations for April 16, 2018

Temp ( °F °C ) Dew Point ( °F °C ) Humidity (%) Winds ( mph kmh ) Pressure ( in mb ) Visibility ( mi km ) Precip ( " mm )
12:51 am 00:51 Clear 56 13.3 3 -16.1 11 11 SE 6 9 29.87 1012 10 16 0.00 0.00
1:51 am 01:51 Clear 52 11.1 1 -17.2 12 12 Calm 29.87 1012 10 16 0.00 0.00
2:51 am 02:51 Clear 48 8.9 1 -17.2 14 14 Calm 29.88 1012 10 16 0.00 0.00
3:51 am 03:51 Clear 46 7.8 1 -17.2 15 15 E 6 9 29.88 1012 10 16 0.00 0.00
4:51 am 04:51 Clear 46 7.8 2 -16.7 16 16 SSE 5 7 29.89 1012 10 16 0.00 0.00
5:51 am 05:51 Sunny 48 8.9 4 -15.6 16 16 Calm 29.89 1012 10 16 0.00 0.00
6:51 am 06:51 Sunny 52 11.1 5 -15 15 15 SE 3 6 29.91 1013 10 16 0.00 0.00
7:51 am 07:51 Sunny 65 18.3 3 -16.1 8 8 E 12 19 29.91 1013 10 16 0.00 0.00
8:51 am 08:51 Sunny 73 22.8 -1 -18.3 5 5 E 12 19 29.89 1012 10 16 0.00 0.00
9:51 am 09:51 Sunny 77 25 0 -17.8 5 5 E 10 17 29.88 1012 10 16 0.00 0.00
10:51 am 10:51 Sunny 82 27.8 -1 -18.3 4 4 S 8 13 29.86 1011 10 16 0.00 0.00
11:51 am 11:51 Sunny 85 29.4 -9 -22.8 2 2 VRB 3 6 29.85 1011 10 16 0.00 0.00
12:51 pm 12:51 Sunny 87 30.6 -10 -23.3 2 2 VRB 5 7 29.82 1010 10 16 0.00 0.00
1:51 pm 13:51 Sunny 89 31.7 -8 -22.2 2 2 N 7 11 29.80 1009 10 16 0.00 0.00
2:51 pm 14:51 Sunny 87 30.6 -13 -25 2 2 SSW 8 13 29.78 1009 10 16 0.00 0.00
3:51 pm 15:51 Sunny 89 31.7 -14 -25.6 2 2 W 22 35 29.76 1008 10 16 0.00 0.00
4:51 pm 16:51 Sunny 88 31.1 -10 -23.3 2 2 WSW 21 33 29.77 1008 10 16 0.00 0.00
5:51 pm 17:51 Sunny 85 29.4 -14 -25.6 2 2 WSW 22 35 29.78 1008 10 16 0.00 0.00
6:51 pm 18:51 Clear 80 26.7 -5 -20.6 3 3 W 9 15 29.80 1009 10 16 0.00 0.00
7:51 pm 19:51 Clear 78 25.6 -2 -18.9 4 4 W 13 20 29.78 1009 10 16 0.00 0.00
8:51 pm 20:51 Clear 73 22.8 -2 -18.9 5 5 NW 9 15 29.80 1009 10 16 0.00 0.00
9:51 pm 21:51 Clear 71 21.7 -2 -18.9 5 5 VRB 3 6 29.81 1010 10 16 0.00 0.00
10:51 pm 22:51 Clear 72 22.2 -3 -19.4 5 5 S 6 9 29.80 1009 10 16 0.00 0.00
11:51 pm 23:51 Clear 70 21.1 -2 -18.9 5 5 ENE 6 9 29.78 1008 10 16 0.00 0.00

Powered by AerisWeather